Location: Jaite
(41.2884°N, 81.5737°W)
Time: 12:11:03
(UTC+00:00)

Helios 1A Rocket - Pass Details

Date: 15 November 2025
Orbit: 439 x 451 km, 98.3° (Epoch: 11 December)

Event Time Altitude Azimuth Distance (km) Brightness Sun altitude
Exits shadow 00:14:21 28° 327° (NNW) 858 4.0 -23.8°
Maximum altitude 00:15:22 36° 288° (WNW) 724 3.9 -24.0°
Drops below altitude 10° 00:18:28 10° 221° (SW) 1,566 5.7 -24.6°
Sets 00:20:35 0° 212° (SSW) 2,437 6.6 -25.0°
